{"data":{"norad_id":45254,"epoch":"2026-05-24T00:58:29.832384Z","epoch_age_seconds":161161,"freshness":"FRESH","line1":"1 45254U 20015A   26144.04062306 -.00000166  00000+0  00000+0 0  9998","line2":"2 45254  65.5249 321.5337 6864966 278.3237  15.0398  2.00601922 45809","mean_motion":2.00601922,"eccentricity":0.6864966,"inclination_deg":65.5249,"raan_deg":321.5337,"arg_perigee_deg":278.3237,"mean_anomaly_deg":15.0398,"bstar":0,"rev_number":4580,"period_min":717.83958281317,"perigee_km":1947.5619542718,"apogee_km":38410.094894783,"semimajor_km":26556.965424527,"source":"CELESTRAK","updated_at":"2026-05-25T13:37:56.112458Z"}}